This is the latest recevied weather packets stored in our database for station/object KD4MBW. If no packets are shown the sender has not sent any weather packets the latest 10 day(s).
| Time | Temp. | Humidity | Pressure | Rain* | Wind** | Luminosity | Snow |
|---|---|---|---|---|---|---|---|
| 1787966289 | 25° C | 99% | 1015.9 hPa | 0 mm | - | 0 W/m² | - |
| 1787965984 | 25° C | 99% | 1016 hPa | 0 mm | - | 0 W/m² | - |
| 1787965679 | 25.56° C | 99% | 1016 hPa | 0 mm | - | 0 W/m² | - |
| 1787965374 | 25.56° C | 99% | 1016 hPa | 0 mm | - | 0 W/m² | - |
| 1787965073 | 25.56° C | 99% | 1016.3 hPa | 0 mm | - | 0 W/m² | - |
| 1787964768 | 25.56° C | 99% | 1015.9 hPa | 0 mm | - | 0 W/m² | - |
| 1787964462 | 25.56° C | 99% | 1016.3 hPa | 0 mm | - | 0 W/m² | - |
| 1787964158 | 25.56° C | 99% | 1016.2 hPa | 0 mm | - | 0 W/m² | - |
| 1787963857 | 25.56° C | 98% | 1016.2 hPa | 0 mm | - | 0 W/m² | - |
| 1787963552 | 25.56° C | 98% | 1015.9 hPa | 0 mm | - | 0 W/m² | - |
| 1787963247 | 25.56° C | 98% | 1016.1 hPa | 0 mm | - | 0 W/m² | - |
| 1787962946 | 25.56° C | 98% | 1016 hPa | 0 mm | - | 0 W/m² | - |
| 1787962644 | 26.11° C | 97% | 1016.1 hPa | 0 mm | - | 1 W/m² | - |
| 1787962339 | 26.11° C | 97% | 1016.2 hPa | 0 mm | - | 2 W/m² | - |
| 1787962028 | 26.11° C | 97% | 1016.2 hPa | 0 mm | - | 4 W/m² | - |
| 1787961723 | 26.11° C | 96% | 1016.1 hPa | 0 mm | - | 7 W/m² | - |
| 1787961416 | 26.11° C | 96% | 1016.1 hPa | 0 mm | - | 11 W/m² | - |
| 1787961116 | 26.11° C | 96% | 1016.3 hPa | 0 mm | - | 15 W/m² | - |
| 1787960815 | 26.11° C | 96% | 1016.3 hPa | 0 mm | - | 19 W/m² | - |
| 1787960510 | 26.11° C | 95% | 1016.2 hPa | 0 mm | - | 22 W/m² | - |
| 1787960209 | 26.11° C | 95% | 1016 hPa | 0 mm | - | 27 W/m² | - |
| 1787959903 | 26.11° C | 95% | 1015.8 hPa | 0 mm | - | 31 W/m² | - |
| 1787959599 | 26.67° C | 95% | 1015.8 hPa | 0 mm | - | 38 W/m² | - |
| 1787959293 | 26.67° C | 95% | 1015.9 hPa | 0 mm | - | 45 W/m² | - |
| 1787958993 | 26.11° C | 96% | 1015.9 hPa | 0 mm | - | 50 W/m² | - |
* Rain latest hour (hover to see other rain measurements)
** Current wind speed in m/s (hover to see current wind gust speed)